Location: Emblem
(62.4273°N, 6.4710°E)
Time: 19:25:14
(UTC+02:00)

Vanguard 2 - Pass Details

Date: 06 February 2023
Orbit: 553 x 2927 km, 32.9° (Epoch: 27 March)

Event Time Altitude Azimuth Distance (km) Brightness Sun altitude
Rises 20:41:05 0° 187° (S) 5,318 11.7 -26.6°
Enters shadow 20:47:13 - 164° (SSE) 4,951 11.3 -27.3°
Reaches altitude 10° 20:48:54 10° 157° (SSE) 4,957 - -27.5°
Maximum altitude 20:51:56 11° 144° (SE) 5,078 - -27.8°
Drops below altitude 10° 20:55:09 10° 132° (SE) 5,342 - -28.1°
Sets 21:05:10 0° 104° (ESE) 6,725 - -29.2°
